星链-35024 (STARLINK-35024)

导读 | 豆包AI

STARLINK-35024是美国SpaceX公司星链星座的一员,于2025年8月31日发射入轨。星链旨在为全球提供高速低时延宽带互联网服务,尤其覆盖基础设施匮乏的偏远地区。这颗低轨卫星采用标准化量产设计,配备相控阵天线与氪离子推进系统,具备自主碰撞规避能力,可助力星座扩容,推动全球无缝互联覆盖。

基本信息
目录编号:
65410
目录名称:
STARLINK-35024
国际标识:
2025-192G
轨道中心:
EARTH
卫星名称:
星链-35024
卫星全名:
星链-35024 (STARLINK-35024)
卫星状态:
在轨 (已飞行195 天)
发射日期:
2025-08-31 UTC
国别 :
美国 (US)
星等 :
--
轨道信息
数据来源 国际轨道数据
星历时间: 2026-03-13T19:12:43+0800
1天前
查看轨道信息
半长轴: 6850.678km
偏心率: 0.0001455
轨道倾角: 53.159°
近地点辐角 64.464°
升交点赤经 214.730°
平近点角 295.651°
近地点: 471.544km
远地点: 473.538km
周期: 94.050分钟
每日圈数: 15.310961
详细信息
固有亮度:
5
最大亮度:
2.5
卫星平台:
Starlink V1.0
覆盖范围:
全球
运营商:
太空探索技术公司
运营商所在国:
美国
制造商(研发单位):
太空探索技术公司
制造商所在国:
美国
使用方式:
暂无
卫星简介
Starlink 计划是 SpaceX 推出的全球卫星互联网项目,通过发射低轨道卫星,为全球尤其是偏远地区提供高速、低延迟的互联网服务。自 2019 年起,Starlink 已部署数千颗卫星,旨在缩小全球数字鸿沟,推动互联网普及。该项目还为军事、航空等行业提供通信支持,带来广泛经济效益。
2D轨道图
3D轨道图
轨道高度分析图
轨道倾角分析图
轨道综合分析图
查看轨道综合分析图